Bar Harbor, ME

11:12 AM EST on December 09, 2019 (GMT -0500)
Hancock County-Bar Harbor

Weather History for KBHB - October, 2019

Change the Weather History Date:

Wednesday, October 30, 2019

  Actual Average Record
Temperature  
Mean Temperature 52 °F -  
Max Temperature 55 °F 53 °F 69 °F (1971)
Min Temperature 48 °F 34 °F 24 °F (2013)
Degree Days  
Heating Degree Days 14    
Growing Degree Days 2 (Base 50)    
Moisture  
Dew Point 52 °F    
Average Humidity 96    
Maximum Humidity 100    
Minimum Humidity 87    
Precipitation  
Precipitation 0.01 in - - ()
Sea Level Pressure  
Sea Level Pressure 30.29 in    
Wind  
Wind Speed 5 mph (SSW)    
Max Wind Speed 9 mph    
Max Gust Speed -    
Visibility 6 miles    
Events Rain    
Averages and records for this station are not official NWS values.
T = Trace of Precipitation, MM = Missing Value Source: NWS Daily Summary

Daily Weather History Graph

Daily Weather History Graph

Search for Another Location

Airport or City:

Astronomy

Oct. 30, 2019 Rise Set
Actual Time 7:07 AM EDT 5:25 PM EDT
Civil Twilight 6:37 AM EDT 5:55 PM EDT
Nautical Twilight 6:03 AM EDT 6:30 PM EDT
Astronomical Twilight 5:29 AM EDT 7:03 PM EDT
Moon 9:51 AM EDT (10/30) 7:25 PM EDT (10/30)
Length of Visible Light 11h 18m
Length of Day
10h 18m
Waxing Crescent, 8% of the Moon is Illuminated
Oct 30
Waxing Crescent
Nov 4
First Quarter
Nov 12
Full
Nov 19
Last Quarter
Nov 26
New

Hourly Weather History & Observations

Time (EDT) Temp. Dew Point Humidity Pressure Visibility Wind Dir Wind Speed Gust Speed Precip Events Conditions
12:39 AM 48.2 °F 48.2 °F 100% 30.32 in 4.0 mi WSW 3.5 mph - 0.00 in Rain Light Rain
12:56 AM 48.9 °F 48.9 °F 100% 30.32 in 10.0 mi SW 4.6 mph - 0.00 in Rain Light Rain
1:56 AM 51.1 °F 50.0 °F 96% 30.31 in 7.0 mi SSW 6.9 mph - N/A   Overcast
2:56 AM 51.1 °F 51.1 °F 100% 30.30 in 5.0 mi SW 6.9 mph - 0.00 in   Overcast
3:38 AM 51.8 °F 51.8 °F 100% 30.29 in 10.0 mi SSW 5.8 mph - N/A   Overcast
3:56 AM 51.1 °F 51.1 °F 100% 30.29 in 10.0 mi SW 5.8 mph - N/A   Overcast
4:52 AM 51.8 °F 51.8 °F 100% 30.29 in 2.5 mi SW 6.9 mph - N/A   Overcast
4:56 AM 52.0 °F 51.1 °F 97% 30.30 in 2.0 mi SW 5.8 mph - 0.00 in Rain Light Rain
5:23 AM 51.8 °F 51.8 °F 100% 30.29 in 3.0 mi SW 3.5 mph - 0.00 in Rain Light Rain
5:43 AM 51.8 °F 51.8 °F 100% 30.29 in 2.5 mi Calm Calm - 0.00 in Rain Light Rain
5:56 AM 52.0 °F 51.1 °F 97% 30.30 in 2.5 mi SW 4.6 mph - 0.00 in Rain Light Rain
6:10 AM 51.8 °F 51.8 °F 100% 30.29 in 4.0 mi SSW 5.8 mph - 0.00 in Rain Light Rain
6:56 AM 52.0 °F 52.0 °F 100% 30.31 in 7.0 mi SW 8.1 mph - 0.01 in Rain Light Rain
7:08 AM 51.8 °F 51.8 °F 100% 30.30 in 4.0 mi SW 5.8 mph - 0.00 in   Overcast
7:56 AM 53.1 °F 52.0 °F 96% 30.32 in 4.0 mi SW 5.8 mph - 0.00 in   Overcast
8:41 AM 53.6 °F 51.8 °F 94% 30.31 in 1.8 mi SW 5.8 mph - 0.00 in Rain Light Rain
8:56 AM 53.1 °F 52.0 °F 96% 30.32 in 3.0 mi SW 9.2 mph - 0.00 in Rain Light Rain
9:27 AM 53.6 °F 51.8 °F 94% 30.31 in 6.0 mi SW 9.2 mph - 0.00 in   Overcast
9:56 AM 54.0 °F 52.0 °F 93% 30.32 in 4.0 mi WSW 8.1 mph - 0.00 in   Overcast
10:56 AM 54.0 °F 52.0 °F 93% 30.32 in 8.0 mi SW 5.8 mph - N/A   Overcast
11:56 AM 55.0 °F 53.1 °F 93% 30.30 in 10.0 mi SSW 8.1 mph - N/A   Overcast
12:32 PM 55.4 °F 51.8 °F 88% 30.30 in 10.0 mi West 4.6 mph - N/A   Overcast
12:56 PM 55.0 °F 52.0 °F 89% 30.30 in 10.0 mi Variable 5.8 mph - N/A   Overcast
1:56 PM 55.9 °F 53.1 °F 90% 30.29 in 10.0 mi Variable 3.5 mph - N/A   Overcast
2:56 PM 55.9 °F 52.0 °F 87% 30.28 in 10.0 mi SW 5.8 mph - N/A   Overcast
3:56 PM 55.9 °F 53.1 °F 90% 30.27 in 10.0 mi South 5.8 mph - N/A   Overcast
4:36 PM 55.4 °F 53.6 °F 94% 30.27 in 10.0 mi Calm Calm - N/A   Overcast
4:56 PM 55.0 °F 54.0 °F 96% 30.27 in 4.0 mi South 4.6 mph - N/A   Overcast
5:00 PM 55.4 °F 53.6 °F 94% 30.27 in 2.5 mi SSW 5.8 mph - N/A   Overcast
5:14 PM 55.4 °F 53.6 °F 94% 30.27 in 1.2 mi South 3.5 mph - N/A   Overcast
5:27 PM 55.4 °F 53.6 °F 94% 30.27 in 3.0 mi South 3.5 mph - N/A   Overcast
5:56 PM 55.0 °F 54.0 °F 96% 30.27 in 10.0 mi South 3.5 mph - N/A   Overcast
6:56 PM 55.0 °F 54.0 °F 96% 30.27 in 10.0 mi South 6.9 mph - N/A   Overcast
7:56 PM 54.0 °F 54.0 °F 100% 30.27 in 10.0 mi SSW 5.8 mph - N/A   Overcast
8:56 PM 54.0 °F 54.0 °F 100% 30.25 in 8.0 mi SSW 6.9 mph - N/A   Overcast
9:56 PM 54.0 °F 54.0 °F 100% 30.25 in 10.0 mi SSW 6.9 mph - N/A   Overcast
10:56 PM 54.0 °F 54.0 °F 100% 30.24 in 10.0 mi South 8.1 mph - N/A   Overcast
11:52 PM 53.6 °F 53.6 °F 100% 30.22 in 4.0 mi SSE 5.8 mph - N/A   Overcast
11:56 PM 54.0 °F 54.0 °F 100% 30.22 in 2.0 mi SSE 5.8 mph - N/A   Overcast